Dewpoint
68 67 69 65 57 54 52 52 53 54 54 57 59 57 56 59 56 58 66 66 66 67 69 73 76 77 76 76 76 77 76 76 76 75 75 75 74 74 74 74 73 74 74 73 73 73 73 74 74
66 68 68 59 52 48 52 52 52 54 56 58 58 57 56 58 62 66 66 67 67 67 68 72 76 77 76 76 75 75 75 75 75 75 75 75 75 75 74 74 73 73 73 72 72 72 73 73 75
68 70 60 55 53 52 52 52 53 55 56 56 56 58 57 59 65 65 66 67 67 67 68 72 76 77 76 75 75 75 75 74 74 74 74 74 74 74 74 73 73 73 72 72 72 72 73 73 73
68 66 60 53 50 54 53 54 55 54 55 57 56 54 61 64 65 66 67 66 67 68 67 74 76 75 73 75 75 74 74 74 73 73 74 74 73 73 72 71 72 72 72 72 73 73 73 73 73
66 58 53 50 51 53 54 54 55 54 54 56 56 55 59 65 66 67 67 66 67 67 67 72 75 72 74 74 73 72 73 68 72 72 71 70 73 72 70 72 72 72 72 73 73 73 73 73 73
57 57 49 47 49 52 54 55 54 54 56 56 55 55 61 66 66 67 67 65 67 66 66 72 73 73 72 72 72 72 67 70 72 71 70 70 73 72 71 72 72 72 73 73 73 73 72 73 74
54 52 47 46 47 50 52 54 53 52 54 54 57 54 62 65 67 67 67 66 66 66 71 73 72 73 74 72 72 71 71 71 71 73 72 71 73 71 71 72 73 73 73 73 72 72 72 72 72
57 56 48 48 50 49 52 53 54 53 54 58 58 53 58 65 68 67 67 67 68 69 69 73 74 74 72 71 72 72 71 71 72 71 71 70 71 72 72 73 73 73 72 71 72 72 73 73 73
57 51 48 48 50 50 52 52 54 56 56 57 58 58 61 66 67 66 66 67 69 67 68 68 72 74 72 72 72 72 72 72 72 71 71 71 70 69 68 72 73 73 72 72 72 73 73 73 72
52 50 48 49 50 50 52 53 53 55 55 56 59 61 64 66 66 65 65 65 66 67 69 69 71 73 72 69 72 74 73 74 73 73 73 75 71 68 67 70 72 71 72 72 72 73 74 72 70
49 45 47 48 49 52 52 54 54 54 53 55 57 61 63 65 64 63 63 63 63 66 67 70 71 73 71 75 76 76 72 74 73 71 74 72 70 72 65 65 67 67 73 67 71 73 70 71 70
45 45 45 49 50 53 53 54 53 54 54 55 56 61 63 63 62 62 61 62 64 65 67 68 71 70 70 68 69 71 74 73 71 70 71 70 70 68 67 65 65 70 66 70 70 69 70 69 71
43 41 43 46 49 54 53 53 54 54 56 57 59 62 61 62 62 61 62 63 64 66 67 66 69 72 72 72 70 72 72 73 69 72 72 73 68 68 65 66 67 70 69 68 70 71 70 70 69
38 43 44 46 49 53 52 52 54 54 56 58 60 60 59 61 61 62 63 63 65 66 66 66 68 71 71 72 73 74 71 70 74 73 72 71 70 68 65 67 66 69 69 69 70 71 70 68 66
40 43 40 42 48 49 54 53 53 55 57 58 59 59 59 59 60 61 63 64 65 66 67 67 69 70 70 70 71 74 69 68 68 70 71 71 70 71 71 68 69 69 72 72 71 72 70 65 67
40 44 35 36 45 49 52 44 51 56 56 56 57 58 59 58 59 61 62 63 65 66 68 69 67 68 69 72 72 75 73 69 69 72 70 70 70 72 72 71 69 70 71 70 71 70 66 68 70
41 34 33 33 36 43 50 47 53 56 55 55 56 57 58 58 59 61 62 63 64 66 68 69 70 70 71 72 72 73 70 69 69 69 69 71 70 71 71 70 71 73 70 70 69 69 68 68 68
34 31 30 32 32 35 39 41 45 56 56 55 56 56 58 58 58 60 61 62 64 66 69 70 70 72 72 72 73 72 68 71 68 70 69 71 70 71 72 69 72 72 69 70 70 71 69 68 68
32 29 29 31 33 44 40 43 45 49 56 56 56 56 57 58 58 59 60 61 63 66 68 70 71 73 73 71 70 69 66 67 67 69 70 71 71 72 73 69 71 74 70 72 73 71 71 68 70
30 28 28 30 31 42 43 40 45 51 55 56 56 56 56 56 57 60 61 61 62 65 68 71 72 72 71 72 73 68 67 66 66 68 69 70 72 73 72 74 70 72 69 74 74 73 68 68 68
27 26 27 28 31 43 40 38 39 50 54 56 56 56 55 55 56 59 61 61 62 65 68 70 72 72 72 72 71 69 68 67 66 67 69 69 72 71 73 72 71 73 72 70 75 72 72 65 69
26 26 26 27 29 29 37 30 38 44 49 55 55 55 54 55 58 58 58 61 62 65 68 70 72 72 72 72 70 70 66 65 65 65 66 68 71 71 71 72 72 76 70 72 71 71 71 71 67
26 26 27 28 28 28 28 28 35 40 42 46 52 53 53 56 57 56 58 61 63 65 67 69 72 73 72 72 71 68 68 64 65 65 70 72 72 72 70 72 74 74 70 73 73 73 73 71 67
26 26 27 28 23 25 26 28 32 40 45 46 47 52 53 53 56 57 58 61 63 65 67 68 72 72 72 72 71 70 69 67 65 66 69 66 67 68 72 72 74 74 72 74 71 72 73 72 71
26 25 22 20 20 20 28 29 33 42 45 47 48 48 54 54 55 56 58 61 63 65 66 68 71 72 71 71 71 70 70 70 70 69 66 68 65 65 70 73 73 70 74 73 72 72 72 71 71
25 21 21 24 22 20 27 26 36 45 48 46 49 49 50 53 55 54 58 61 63 65 66 67 69 71 71 70 70 70 71 67 67 69 65 65 65 65 70 72 71 71 73 72 73 69 68 70 69
27 23 21 19 19 18 21 27 36 45 49 50 49 50 50 51 53 54 57 60 63 64 67 68 69 70 70 68 70 70 70 70 68 69 69 66 70 66 70 72 72 72 72 73 73 68 70 71 71
25 25 19 21 23 22 22 24 30 47 51 52 52 53 55 55 53 54 56 58 61 62 65 68 68 69 69 68 68 68 68 70 70 70 70 69 69 70 71 72 72 72 73 72 74 71 71 71 69
25 23 23 20 21 21 21 29 46 52 52 52 53 55 56 58 59 59 57 57 60 62 63 66 67 68 68 67 68 67 67 68 70 69 70 70 70 72 72 73 73 73 73 72 74 74 71 72 71
29 27 25 23 28 26 25 30 50 53 53 53 54 55 57 58 60 60 57 59 61 63 63 65 67 67 68 68 68 68 68 68 67 68 69 70 71 71 72 73 73 73 72 72 73 73 70 70 71
Lifted_Index
-2 -3 -3 -3 -3 -3 -2 -2 -2 -2 -2 -2 -2 -2 -2 -2 -2 -2 -3 -3 -3 -3 -3 -4 -5 -5 -5 -5 -5 -5 -5 -4 -4 -5 -5 -4 -4 -4 -5 -5 -5 -5 -6 -5 -5 -6 -6 -6 -7
-2 -3 -3 -2 -2 -2 -2 -2 -2 -2 -2 -2 -2 -2 -2 -2 -2 -2 -3 -3 -3 -3 -3 -4 -5 -5 -5 -5 -5 -5 -5 -4 -4 -4 -4 -4 -4 -4 -5 -5 -5 -5 -5 -5 -5 -6 -6 -6 -6
-3 -3 -3 -2 -2 -2 -2 -2 -2 -2 -1 -1 -1 -1 -1 -2 -2 -2 -2 -2 -3 -3 -3 -4 -5 -5 -5 -5 -5 -4 -4 -4 -4 -4 -4 -4 -4 -4 -4 -5 -5 -5 -5 -5 -5 -6 -6 -6 -6
-4 -3 -3 -2 -2 -2 -2 -2 -1 -1 -1 -1 -1 -1 -1 -2 -2 -2 -2 -2 -2 -2 -3 -4 -4 -4 -4 -4 -4 -4 -4 -3 -3 -3 -3 -3 -3 -3 -4 -4 -5 -5 -5 -5 -5 -6 -6 -6 -6
-4 -3 -2 -2 -1 -1 -1 -1 -1 -1 -1 -1 -1 -1 -2 -2 -2 -3 -2 -2 -2 -3 -3 -4 -4 -3 -3 -3 -3 -3 -2 -2 -3 -3 -2 -2 -3 -2 -3 -4 -4 -4 -4 -5 -5 -6 -6 -6 -5
-3 -2 -2 -1 -1 -1 -1 -1 -1 -1 -1 -1 -1 -1 -2 -2 -3 -3 -3 -2 -2 -3 -3 -4 -4 -3 -3 -3 -2 -2 -1 -1 -2 -2 -2 -2 -2 -2 -2 -4 -4 -4 -5 -5 -5 -5 -5 -5 -5
-2 -2 -1 -1 -1 -1 -1 -1 -1 -1 -1 -1 -1 -1 -2 -3 -3 -3 -3 -2 -2 -3 -3 -4 -4 -4 -3 -2 -2 -1 -1 -1 -2 -2 -2 -2 -2 -2 -3 -3 -4 -4 -5 -5 -5 -5 -5 -5 -5
-2 -2 -1 -1 -1 -1 -1 -1 -1 -1 -2 -2 -2 -2 -2 -3 -3 -3 -3 -2 -2 -3 -3 -4 -4 -4 -3 -2 -2 -1 -1 -2 -2 -2 -2 -2 -2 -2 -2 -3 -4 -4 -5 -4 -5 -5 -5 -4 -4
-2 -2 -2 -1 -1 -1 -1 -1 -1 -2 -2 -2 -2 -2 -2 -3 -3 -3 -3 -2 -2 -2 -3 -3 -4 -4 -3 -2 -2 -2 -2 -2 -2 -2 -2 -1 -2 -2 -2 -3 -4 -4 -4 -4 -4 -4 -4 -4 -4
-2 -2 -1 -1 -1 -2 -1 -1 -1 -2 -2 -2 -2 -3 -3 -3 -3 -3 -2 -2 -2 -2 -2 -3 -3 -3 -3 -3 -3 -3 -2 -2 -2 -2 -2 -2 -1 -1 -1 -2 -3 -4 -4 -4 -4 -4 -4 -4 -4
-2 -1 -1 -1 -1 -2 -2 -2 -2 -2 -2 -2 -2 -3 -3 -3 -2 -2 -2 -2 -2 -2 -2 -3 -3 -3 -3 -3 -3 -3 -3 -2 -2 -2 -2 -2 -1 -1 -1 -1 -2 -3 -3 -4 -4 -4 -4 -4 -4
-1 -1 -1 -1 -2 -2 -2 -2 -2 -2 -2 -2 -2 -3 -3 -3 -2 -2 -2 -2 -2 -2 -3 -3 -3 -3 -3 -3 -3 -3 -3 -2 -2 -2 -2 -2 -2 -1 -1 -1 -2 -2 -3 -4 -4 -4 -4 -4 -4
-1 -1 -1 -1 -2 -3 -3 -3 -3 -3 -2 -2 -3 -3 -3 -2 -2 -2 -2 -2 -2 -3 -3 -3 -3 -3 -3 -3 -3 -3 -2 -2 -2 -2 -2 -2 -2 -2 -1 -1 -2 -3 -3 -4 -4 -5 -5 -4 -4
-1 -1 -1 -2 -3 -3 -4 -3 -3 -3 -3 -3 -3 -3 -2 -2 -2 -2 -2 -2 -3 -3 -3 -3 -3 -3 -3 -3 -3 -3 -2 -2 -2 -2 -2 -2 -2 -2 -2 -2 -2 -3 -4 -4 -4 -5 -4 -4 -3
-1 -2 -1 -2 -2 -3 -3 -3 -3 -4 -3 -3 -3 -2 -2 -1 -2 -2 -2 -2 -3 -3 -3 -3 -3 -3 -3 -3 -3 -3 -2 -1 -1 -2 -2 -2 -2 -2 -2 -3 -3 -4 -4 -4 -4 -4 -4 -3 -3
-2 -2 -1 -1 -1 -2 -3 -3 -4 -4 -4 -3 -3 -2 -2 -2 -2 -2 -2 -2 -3 -3 -3 -3 -3 -3 -3 -3 -3 -3 -2 -1 -1 -2 -2 -2 -2 -3 -3 -3 -4 -4 -4 -4 -4 -4 -3 -4 -4
-2 -1 -0 0 0 -1 -1 -2 -3 -4 -4 -4 -3 -3 -2 -2 -2 -2 -2 -2 -3 -3 -3 -3 -3 -3 -3 -3 -3 -3 -2 -1 -1 -1 -2 -2 -2 -3 -3 -4 -4 -5 -4 -4 -4 -4 -3 -4 -4
-0 -0 0 1 1 0 -1 -2 -3 -4 -4 -4 -4 -3 -3 -3 -2 -2 -2 -2 -2 -3 -4 -4 -3 -3 -3 -3 -3 -2 -2 -1 -1 -1 -2 -2 -3 -3 -4 -4 -5 -5 -4 -4 -4 -4 -4 -4 -4
1 1 1 1 0 -0 -1 -1 -2 -3 -4 -4 -4 -4 -3 -3 -3 -2 -2 -2 -2 -3 -3 -4 -4 -3 -3 -3 -3 -2 -2 -1 -1 -1 -2 -2 -3 -4 -4 -4 -5 -5 -5 -5 -5 -4 -4 -4 -5
1 1 1 1 0 -1 -1 -1 -2 -3 -3 -4 -4 -4 -3 -3 -3 -3 -3 -2 -2 -3 -4 -4 -4 -3 -3 -3 -3 -2 -2 -1 -1 -1 -2 -2 -3 -4 -4 -4 -4 -5 -5 -5 -5 -5 -5 -5 -5
1 1 1 1 0 -1 -1 -1 -1 -2 -3 -4 -4 -4 -4 -3 -3 -3 -3 -3 -3 -3 -4 -4 -4 -3 -3 -3 -2 -2 -1 -1 -1 -2 -2 -2 -3 -4 -4 -4 -4 -5 -5 -5 -5 -6 -5 -5 -4
1 1 1 1 0 -0 -0 -0 -1 -1 -2 -3 -3 -3 -4 -4 -4 -3 -3 -3 -3 -3 -4 -4 -4 -4 -3 -3 -3 -2 -2 -1 -1 -2 -2 -3 -3 -4 -4 -4 -5 -5 -5 -5 -5 -6 -6 -5 -4
2 2 2 1 1 0 0 0 -1 -1 -2 -2 -3 -3 -3 -4 -4 -3 -3 -3 -3 -4 -4 -4 -4 -4 -4 -3 -3 -3 -2 -2 -2 -2 -3 -4 -4 -4 -4 -5 -5 -5 -5 -5 -6 -6 -6 -5 -5
3 2 2 1 0 0 0 0 -1 -1 -2 -2 -2 -2 -3 -3 -3 -3 -3 -3 -4 -4 -4 -4 -4 -4 -4 -3 -3 -3 -2 -2 -2 -3 -3 -4 -4 -4 -4 -5 -5 -5 -5 -5 -6 -6 -6 -5 -5
3 2 1 -0 -0 -0 0 0 -1 -2 -2 -2 -2 -2 -2 -3 -3 -3 -3 -3 -3 -4 -4 -4 -4 -4 -4 -3 -3 -3 -2 -2 -3 -3 -3 -3 -3 -3 -4 -5 -5 -5 -5 -5 -5 -5 -5 -5 -5
2 1 0 -1 -1 -0 -0 -0 -1 -2 -3 -3 -3 -2 -2 -3 -3 -3 -3 -3 -3 -4 -4 -4 -4 -4 -4 -3 -3 -3 -2 -3 -3 -3 -3 -3 -3 -3 -4 -4 -4 -4 -5 -5 -5 -5 -5 -5 -5
1 1 0 -0 -1 -1 -0 -1 -1 -3 -3 -3 -3 -3 -3 -3 -3 -3 -3 -3 -4 -4 -4 -4 -4 -4 -4 -3 -3 -3 -3 -3 -3 -3 -3 -3 -3 -4 -4 -5 -5 -5 -5 -5 -5 -5 -5 -5 -5
1 1 1 -0 -0 -1 -1 -1 -2 -3 -4 -3 -3 -3 -3 -3 -3 -3 -3 -4 -4 -4 -4 -4 -4 -4 -4 -4 -3 -3 -3 -3 -3 -3 -3 -4 -4 -4 -5 -5 -5 -5 -6 -6 -6 -5 -5 -5 -5
1 1 0 -0 -0 -1 -0 -1 -2 -3 -3 -3 -3 -3 -4 -4 -4 -4 -4 -4 -4 -4 -4 -4 -4 -4 -4 -4 -3 -3 -3 -3 -3 -3 -3 -4 -4 -5 -5 -6 -6 -6 -6 -6 -6 -6 -5 -5 -5
1 0 -0 -0 -0 -0 -0 -1 -2 -2 -3 -3 -3 -3 -4 -4 -5 -4 -4 -4 -4 -5 -5 -5 -5 -4 -4 -4 -3 -3 -3 -3 -3 -3 -3 -4 -4 -5 -5 -6 -6 -6 -6 -6 -6 -6 -5 -5 -5